Location: Unspecified
(0.0000°N, 0.0000°E)
Time: 15:46:47
(UTC+00:00)

deb Delta 126 - Pass Details

Date: 20 February 2026
Orbit: 1137 x 1258 km, 102.0° (Epoch: 9 March)

Event Time Altitude Azimuth Distance (km) Brightness Sun altitude
Rises 04:18:02 0° 189° (S) 4,193 ? -28.4°
Reaches altitude 10° 04:21:13 10° 202° (SSW) 3,232 ? -27.6°
Enters shadow 04:23:31 18° 217° (SW) 2,675 ? -27.0°
